Time,TemperatureF,DewpointF,PressureIn,WindDirection,WindDirectionDegrees,WindSpeedMPH,WindSpeedGustMPH,Humidity,HourlyPrecipIn,Conditions,Clouds,dailyrainin,SoftwareType,DateUTC
2013-05-31 00:14:00,67.5,64.0,30.09,WSW,242,0.0,-999.0,88,-99.99,,,0.00,weatherlink.com 1.10,2013-05-31 04:14:00,
2013-05-31 00:29:00,67.1,64.0,30.09,WSW,242,0.0,-999.0,89,-99.99,,,0.00,weatherlink.com 1.10,2013-05-31 04:29:00,
2013-05-31 00:44:00,66.7,63.0,30.10,WSW,242,0.0,-999.0,89,-99.99,,,0.00,weatherlink.com 1.10,2013-05-31 04:44:00,
2013-05-31 00:59:00,66.4,63.0,30.10,WSW,242,0.0,-999.0,89,-99.99,,,0.00,weatherlink.com 1.10,2013-05-31 04:59:00,
2013-05-31 01:14:00,66.1,63.0,30.09,WSW,242,0.0,-999.0,89,-99.99,,,0.00,weatherlink.com 1.10,2013-05-31 05:14:00,
2013-05-31 01:29:00,65.8,63.0,30.09,WSW,242,0.0,-999.0,89,-99.99,,,0.00,weatherlink.com 1.10,2013-05-31 05:29:00,
2013-05-31 01:44:00,65.5,63.0,30.09,WSW,242,0.0,-999.0,90,-99.99,,,0.00,weatherlink.com 1.10,2013-05-31 05:44:00,
2013-05-31 01:59:00,65.1,62.0,30.09,WSW,242,0.0,-999.0,90,-99.99,,,0.00,weatherlink.com 1.10,2013-05-31 05:59:00,
2013-05-31 02:14:00,64.8,62.0,30.09,WSW,242,0.0,-999.0,91,-99.99,,,0.00,weatherlink.com 1.10,2013-05-31 06:14:00,
2013-05-31 02:29:00,64.5,62.0,30.09,WSW,242,0.0,-999.0,91,-99.99,,,0.00,weatherlink.com 1.10,2013-05-31 06:29:00,
2013-05-31 02:44:00,64.2,62.0,30.09,WSW,242,0.0,-999.0,91,-99.99,,,0.00,weatherlink.com 1.10,2013-05-31 06:44:00,
2013-05-31 02:59:00,63.9,62.0,30.09,WSW,242,0.0,-999.0,92,-99.99,,,0.00,weatherlink.com 1.10,2013-05-31 06:59:00,
2013-05-31 03:14:00,63.6,61.0,30.09,WSW,242,0.0,-999.0,92,-99.99,,,0.00,weatherlink.com 1.10,2013-05-31 07:14:00,
2013-05-31 03:29:00,63.2,61.0,30.09,WSW,242,0.0,-999.0,92,-99.99,,,0.00,weatherlink.com 1.10,2013-05-31 07:29:00,
2013-05-31 03:45:00,63.0,61.0,30.08,WSW,242,0.0,-999.0,92,-99.99,,,0.00,weatherlink.com 1.10,2013-05-31 07:45:00,
2013-05-31 04:00:00,62.7,60.0,30.08,WSW,242,0.0,-999.0,92,-99.99,,,0.00,weatherlink.com 1.10,2013-05-31 08:00:00,
2013-05-31 04:15:00,62.5,60.0,30.09,WSW,242,0.0,-999.0,92,-99.99,,,0.00,weatherlink.com 1.10,2013-05-31 08:15:00,
2013-05-31 04:30:00,62.4,60.0,30.09,WSW,242,0.0,-999.0,93,-99.99,,,0.00,weatherlink.com 1.10,2013-05-31 08:30:00,
2013-05-31 04:45:00,62.2,60.0,30.09,WSW,242,0.0,-999.0,93,-99.99,,,0.00,weatherlink.com 1.10,2013-05-31 08:45:00,
2013-05-31 05:00:00,62.1,60.0,30.09,WSW,242,0.0,-999.0,93,-99.99,,,0.00,weatherlink.com 1.10,2013-05-31 09:00:00,
2013-05-31 05:15:00,61.9,60.0,30.09,WSW,242,0.0,-999.0,93,-99.99,,,0.00,weatherlink.com 1.10,2013-05-31 09:15:00,
2013-05-31 05:30:00,61.6,60.0,30.09,WSW,242,0.0,-999.0,93,-99.99,,,0.00,weatherlink.com 1.10,2013-05-31 09:30:00,
2013-05-31 05:45:00,61.5,60.0,30.09,WSW,242,0.0,-999.0,93,-99.99,,,0.00,weatherlink.com 1.10,2013-05-31 09:45:00,
2013-05-31 06:00:00,61.6,60.0,30.10,WSW,242,0.0,-999.0,93,-99.99,,,0.00,weatherlink.com 1.10,2013-05-31 10:00:00,
2013-05-31 06:15:00,61.6,60.0,30.10,WSW,242,0.0,-999.0,93,-99.99,,,0.00,weatherlink.com 1.10,2013-05-31 10:15:00,
2013-05-31 06:30:00,61.8,60.0,30.11,WSW,242,0.0,-999.0,94,-99.99,,,0.00,weatherlink.com 1.10,2013-05-31 10:30:00,
2013-05-31 06:45:00,62.3,61.0,30.10,WSW,242,0.0,-999.0,94,-99.99,,,0.00,weatherlink.com 1.10,2013-05-31 10:45:00,
2013-05-31 07:00:00,63.2,62.0,30.11,WSW,242,0.0,-999.0,95,-99.99,,,0.00,weatherlink.com 1.10,2013-05-31 11:00:00,
2013-05-31 07:15:00,64.8,63.0,30.10,NNE,26,0.0,-999.0,95,-99.99,,,0.00,weatherlink.com 1.10,2013-05-31 11:15:00,
2013-05-31 07:30:00,65.7,64.0,30.10,NNE,31,0.0,-999.0,95,-99.99,,,0.00,weatherlink.com 1.10,2013-05-31 11:30:00,
2013-05-31 07:45:00,66.5,65.0,30.11,NE,54,3.0,-999.0,95,-99.99,,,0.00,weatherlink.com 1.10,2013-05-31 11:45:00,
2013-05-31 08:00:00,67.5,66.0,30.11,NE,52,3.0,-999.0,94,-99.99,,,0.00,weatherlink.com 1.10,2013-05-31 12:00:00,
2013-05-31 08:15:00,68.7,66.0,30.11,NE,55,0.0,-999.0,91,-99.99,,,0.00,weatherlink.com 1.10,2013-05-31 12:15:00,
2013-05-31 08:30:00,69.9,67.0,30.11,NE,55,0.0,-999.0,90,-99.99,,,0.00,weatherlink.com 1.10,2013-05-31 12:30:00,
2013-05-31 08:45:00,71.4,67.0,30.11,NE,55,0.0,-999.0,87,-99.99,,,0.00,weatherlink.com 1.10,2013-05-31 12:45:00,
2013-05-31 09:00:00,73.0,68.0,30.10,ENE,66,0.0,-999.0,83,-99.99,,,0.00,weatherlink.com 1.10,2013-05-31 13:00:00,
2013-05-31 09:15:00,74.7,69.0,30.10,ENE,65,0.0,-999.0,82,-99.99,,,0.00,weatherlink.com 1.10,2013-05-31 13:15:00,
2013-05-31 09:30:00,75.8,69.0,30.10,NW,323,0.0,-999.0,79,-99.99,,,0.00,weatherlink.com 1.10,2013-05-31 13:30:00,
2013-05-31 09:45:00,77.0,70.0,30.09,NW,323,0.0,-999.0,79,-99.99,,,0.00,weatherlink.com 1.10,2013-05-31 13:45:00,
2013-05-31 10:00:00,78.2,70.0,30.08,South,178,0.0,-999.0,77,-99.99,,,0.00,weatherlink.com 1.10,2013-05-31 14:00:00,
2013-05-31 10:15:00,79.4,71.0,30.08,SW,226,1.0,-999.0,76,-99.99,,,0.00,weatherlink.com 1.10,2013-05-31 14:15:00,
2013-05-31 10:30:00,80.3,72.0,30.07,WNW,294,2.0,-999.0,75,-99.99,,,0.00,weatherlink.com 1.10,2013-05-31 14:30:00,
2013-05-31 10:45:00,81.5,71.0,30.07,West,265,0.0,-999.0,71,-99.99,,,0.00,weatherlink.com 1.10,2013-05-31 14:45:00,
2013-05-31 11:01:00,82.5,72.0,30.08,WSW,257,2.0,-999.0,70,-99.99,,,0.00,weatherlink.com 1.10,2013-05-31 15:01:00,
2013-05-31 11:16:00,83.0,72.0,30.07,West,260,5.0,-999.0,69,-99.99,,,0.00,weatherlink.com 1.10,2013-05-31 15:16:00,
2013-05-31 11:31:00,84.1,72.0,30.07,SW,217,2.0,-999.0,67,-99.99,,,0.00,weatherlink.com 1.10,2013-05-31 15:31:00,
2013-05-31 11:46:00,85.9,71.0,30.05,SW,224,0.0,-999.0,62,-99.99,,,0.00,weatherlink.com 1.10,2013-05-31 15:46:00,
2013-05-31 12:01:00,87.1,71.0,30.05,South,183,1.0,-999.0,60,-99.99,,,0.00,weatherlink.com 1.10,2013-05-31 16:01:00,
2013-05-31 12:16:00,88.1,72.0,30.05,SW,214,0.0,-999.0,59,-99.99,,,0.00,weatherlink.com 1.10,2013-05-31 16:16:00,
2013-05-31 12:31:00,87.4,72.0,30.04,ENE,67,0.0,-999.0,61,-99.99,,,0.00,weatherlink.com 1.10,2013-05-31 16:31:00,
2013-05-31 12:46:00,88.7,71.0,30.03,SSW,209,3.0,-999.0,56,-99.99,,,0.00,weatherlink.com 1.10,2013-05-31 16:46:00,
2013-05-31 13:01:00,89.6,72.0,30.03,SW,223,5.0,-999.0,56,-99.99,,,0.00,weatherlink.com 1.10,2013-05-31 17:01:00,
2013-05-31 13:16:00,89.9,73.0,30.03,WSW,243,3.0,-999.0,57,-99.99,,,0.00,weatherlink.com 1.10,2013-05-31 17:16:00,
2013-05-31 13:31:00,90.2,72.0,30.02,NW,313,3.0,-999.0,56,-99.99,,,0.00,weatherlink.com 1.10,2013-05-31 17:31:00,
2013-05-31 13:46:00,91.1,72.0,30.02,SW,228,4.0,-999.0,54,-99.99,,,0.00,weatherlink.com 1.10,2013-05-31 17:46:00,
2013-05-31 14:01:00,92.7,71.0,30.01,WSW,241,0.0,-999.0,49,-99.99,,,0.00,weatherlink.com 1.10,2013-05-31 18:01:00,
2013-05-31 14:16:00,93.9,71.0,30.01,SSW,204,1.0,-999.0,47,-99.99,,,0.00,weatherlink.com 1.10,2013-05-31 18:16:00,
2013-05-31 14:31:00,93.3,71.0,30.01,South,175,2.0,-999.0,48,-99.99,,,0.00,weatherlink.com 1.10,2013-05-31 18:31:00,
2013-05-31 14:46:00,93.6,72.0,30.00,South,173,4.0,-999.0,49,-99.99,,,0.00,weatherlink.com 1.10,2013-05-31 18:46:00,
2013-05-31 15:01:00,93.5,70.0,30.00,SSE,168,1.0,-999.0,46,-99.99,,,0.00,weatherlink.com 1.10,2013-05-31 19:01:00,
2013-05-31 15:16:00,93.6,67.0,30.00,West,273,2.0,-999.0,42,-99.99,,,0.00,weatherlink.com 1.10,2013-05-31 19:16:00,
2013-05-31 15:31:00,93.9,65.0,30.00,West,278,2.0,-999.0,39,-99.99,,,0.00,weatherlink.com 1.10,2013-05-31 19:31:00,
2013-05-31 15:46:00,94.5,69.0,29.99,South,171,4.0,-999.0,44,-99.99,,,0.00,weatherlink.com 1.10,2013-05-31 19:46:00,
2013-05-31 16:01:00,94.5,68.0,29.99,WSW,252,0.0,-999.0,42,-99.99,,,0.00,weatherlink.com 1.10,2013-05-31 20:01:00,
2013-05-31 16:16:00,94.3,69.0,29.98,SSW,210,3.0,-999.0,44,-99.99,,,0.00,weatherlink.com 1.10,2013-05-31 20:16:00,
2013-05-31 16:31:00,93.6,70.0,29.97,SW,232,1.0,-999.0,46,-99.99,,,0.00,weatherlink.com 1.10,2013-05-31 20:31:00,
2013-05-31 16:46:00,93.3,68.0,29.97,SSW,195,1.0,-999.0,44,-99.99,,,0.00,weatherlink.com 1.10,2013-05-31 20:46:00,
2013-05-31 17:02:00,93.5,68.0,29.96,SSW,202,3.0,-999.0,44,-99.99,,,0.00,weatherlink.com 1.10,2013-05-31 21:02:00,
2013-05-31 17:17:00,94.2,68.0,29.96,South,184,2.0,-999.0,42,-99.99,,,0.00,weatherlink.com 1.10,2013-05-31 21:17:00,
2013-05-31 17:32:00,94.1,66.0,29.96,WSW,237,4.0,-999.0,39,-99.99,,,0.00,weatherlink.com 1.10,2013-05-31 21:32:00,
2013-05-31 17:47:00,93.6,67.0,29.95,WSW,240,5.0,-999.0,42,-99.99,,,0.00,weatherlink.com 1.10,2013-05-31 21:47:00,
2013-05-31 18:02:00,93.7,66.0,29.95,WNW,290,1.0,-999.0,40,-99.99,,,0.00,weatherlink.com 1.10,2013-05-31 22:02:00,
2013-05-31 18:17:00,93.6,66.0,29.95,SW,234,1.0,-999.0,40,-99.99,,,0.00,weatherlink.com 1.10,2013-05-31 22:17:00,
2013-05-31 18:32:00,93.3,63.0,29.95,WSW,254,2.0,-999.0,36,-99.99,,,0.00,weatherlink.com 1.10,2013-05-31 22:32:00,
2013-05-31 18:47:00,92.4,63.0,29.95,SW,235,2.0,-999.0,38,-99.99,,,0.00,weatherlink.com 1.10,2013-05-31 22:47:00,
2013-05-31 19:02:00,92.1,64.0,29.95,WNW,302,1.0,-999.0,39,-99.99,,,0.00,weatherlink.com 1.10,2013-05-31 23:02:00,
2013-05-31 19:17:00,92.0,64.0,29.95,South,175,2.0,-999.0,40,-99.99,,,0.00,weatherlink.com 1.10,2013-05-31 23:17:00,
2013-05-31 19:32:00,91.6,65.0,29.95,South,175,0.0,-999.0,42,-99.99,,,0.00,weatherlink.com 1.10,2013-05-31 23:32:00,
2013-05-31 19:47:00,90.7,68.0,29.96,South,175,0.0,-999.0,47,-99.99,,,0.00,weatherlink.com 1.10,2013-05-31 23:47:00,
2013-05-31 20:02:00,88.6,68.0,29.96,South,175,0.0,-999.0,50,-99.99,,,0.00,weatherlink.com 1.10,2013-06-01 00:02:00,
2013-05-31 20:17:00,85.8,66.0,29.96,South,175,0.0,-999.0,52,-99.99,,,0.00,weatherlink.com 1.10,2013-06-01 00:17:00,
2013-05-31 20:32:00,83.4,66.0,29.96,South,175,0.0,-999.0,55,-99.99,,,0.00,weatherlink.com 1.10,2013-06-01 00:32:00,
2013-05-31 20:47:00,82.1,65.0,29.96,South,175,0.0,-999.0,56,-99.99,,,0.00,weatherlink.com 1.10,2013-06-01 00:47:00,
2013-05-31 21:02:00,80.9,65.0,29.96,South,175,0.0,-999.0,59,-99.99,,,0.00,weatherlink.com 1.10,2013-06-01 01:02:00,
2013-05-31 21:17:00,79.4,65.0,29.97,South,175,0.0,-999.0,62,-99.99,,,0.00,weatherlink.com 1.10,2013-06-01 01:17:00,
2013-05-31 21:32:00,77.8,64.0,29.98,South,175,0.0,-999.0,63,-99.99,,,0.00,weatherlink.com 1.10,2013-06-01 01:32:00,
2013-05-31 21:47:00,76.2,64.0,29.98,South,175,0.0,-999.0,65,-99.99,,,0.00,weatherlink.com 1.10,2013-06-01 01:47:00,
2013-05-31 22:02:00,74.7,64.0,29.98,South,175,0.0,-999.0,69,-99.99,,,0.00,weatherlink.com 1.10,2013-06-01 02:02:00,
2013-05-31 22:17:00,73.2,64.0,29.98,South,175,0.0,-999.0,72,-99.99,,,0.00,weatherlink.com 1.10,2013-06-01 02:17:00,
2013-05-31 22:32:00,72.1,63.0,29.98,South,175,0.0,-999.0,74,-99.99,,,0.00,weatherlink.com 1.10,2013-06-01 02:32:00,
2013-05-31 22:47:00,71.2,63.0,29.98,South,175,0.0,-999.0,75,-99.99,,,0.00,weatherlink.com 1.10,2013-06-01 02:47:00,
2013-05-31 23:02:00,70.2,63.0,29.98,South,175,0.0,-999.0,77,-99.99,,,0.00,weatherlink.com 1.10,2013-06-01 03:02:00,
2013-05-31 23:17:00,69.4,62.0,29.97,South,175,0.0,-999.0,78,-99.99,,,0.00,weatherlink.com 1.10,2013-06-01 03:17:00,
2013-05-31 23:32:00,68.8,62.0,29.97,South,175,0.0,-999.0,79,-99.99,,,0.00,weatherlink.com 1.10,2013-06-01 03:32:00,
2013-05-31 23:47:00,68.2,62.0,29.97,South,175,0.0,-999.0,80,-99.99,,,0.00,weatherlink.com 1.10,2013-06-01 03:47:00,